Regional Weather Roundup
Issued by NWS Wakefield, VA

Home | Current Version | Previous Version | Graphics & Text | Print | Product List | Glossary On
Versions: 1 2 3 4 5 6 7 8 9 10 11 12 13 14 15 16 17 18 19 20 21 22 23 24 25 26 27 28 29 30 31 32 33 34 35 36 37 38 39 40 41 42 43 44 45 46 47 48 49 50
000
ASUS41 KAKQ 210310
RWRAKQ

REGIONAL WEATHER ROUNDUP
NATIONAL WEATHER SERVICE WAKEFIELD VA
1100 PM EDT WED AUG 20 2014

Note: "fair" indicates few or no clouds below 12,000 feet with no
significant weather and/or obstructions to visibility. * = Denotes
station may not report precipitation (e.g., rain,snow,etc.),
thunder or fog.

VAZ042-051-052>054-056-210400-
NORTHERN VIRGINIA

CITY           SKY/WX    TMP DP  RH WIND       PRES   REMARKS
WASH NATIONAL  PTCLDY    74  64  71 CALM      30.02R
DULLES         PTCLDY    66  65  96 E3        30.02R
FORT BELVOIR   FOG       66  66 100 E1        30.02F VSB 1
QUANTICO       CLEAR     70  66  87 CALM      30.02R
FREDERICKSBRG* PTCLDY    70  70 100 W3        30.01S
STAFFORD*      PTCLDY    67  67 100 CALM      30.06S
WARRENTON      CLOUDY    70  70 100 CALM      30.01S
CULPEPER*      MOCLDY   N/A N/A N/A CALM      30.03R
MANASSAS*      PTCLDY    68  66  94 CALM      30.01F
LEESBURG*      CLEAR     68  68 100 CALM      30.03S
WINCHESTER     MOCLDY    70  68  94 CALM      30.01S FOG
$$

VAZ048-049-060>072-079>083-210400-
CENTRAL AND SOUTH CENTRAL VIRGINIA...AND NORTH CENTRAL NORTH CAROLINA

CITY           SKY/WX    TMP DP  RH WIND       PRES   REMARKS
RICHMOND       CLOUDY    76  69  79 CALM      30.02R
CHESTERFIELD*  MOCLDY    75  63  64 S3        30.03R
HANOVER        CLOUDY    75  69  81 S7        30.03R
TAPPAHANNOCK*  CLOUDY    74  65  73 SE5       30.02R
CHARLOTTSVILLE MOCLDY    69  67  93 CALM      30.04R
ORANGE*        PTCLDY    68  68 100 CALM      30.04F
LOUISA*        CLOUDY    70  68  94 W6        30.04R
FARMVILLE*     MOCLDY    73  66  78 NE10G16   30.05R THUNDER
SOUTH HILL*    CLEAR     75  75 100 CALM      30.07S FOG
ROANOKE RAPIDS CLEAR     72  72 100 CALM      30.02S FOG
RALEIGH        MOCLDY    74  68  81 CALM      30.03R
$$

VAZ088>098-210400-
SOUTHEAST VIRGINIA

CITY           SKY/WX    TMP DP  RH WIND       PRES   REMARKS
NORFOLK        CLEAR     75  68  78 S6        30.00F
VIRGINIA BEACH PTCLDY    74  69  85 S7        30.00S
NORFOLK NAVAL  PTCLDY    76  69  79 S7        30.02S
WEST POINT*    CLOUDY    76  69  80 E3        30.04R
NEWPORT NEWS   PTCLDY    79  69  71 S6        30.01R
LANGLEY AFB    PTCLDY    75  72  90 S7        30.00R
FORT EUSTIS    PTCLDY    76  75  96 S9        29.99R
WILLIAMSBURG*  MOCLDY    79  72  78 S7        30.02R
FRANKLIN*      PTCLDY    73  72  94 SE5       30.02S
WAKEFIELD      PTCLDY    75  70  84 S7        30.00F
$$

VAZ020-022-025-037-045-210400-
WESTERN AND SOUTHWEST VIRGINIA

CITY           SKY/WX    TMP DP  RH WIND       PRES   REMARKS
STAUNTON*      PTCLDY    69  67  92 CALM      30.07S
HOT SPRINGS VA PTCLDY    66  60  80 W9        30.19F
LYNCHBURG      PTCLDY    72  72 100 CALM      30.04R
DANVILLE       LGT RAIN  76  71  85 W7        30.02S
MARTINSVILLE   MOCLDY    72  72  99 CALM      30.07S FOG
ROANOKE        MOCLDY    73  68  84 NW3       30.06S
BLACKSBURG     MOCLDY    70  70 100 CALM      30.13S
DUBLIN*        CLOUDY    73  69  88 SW6       30.12S
MARION*        CLOUDY    71  66  86 W14       30.16F
HILLSVILLE*    CLOUDY    72  67  86 W7        30.15F
RICHLANDS*     LGT RAIN  71  65  83 CALM      30.14F
WISE*          CLOUDY    64  63  94 SW8       30.17F
ABINGDON*      LGT RAIN  70  69  98 W8        30.14F
$$

MDZ021>025-VAZ099-100-210400-
SOUTHERN MARYLAND AND THE DELMARVA PENINSULA

CITY           SKY/WX    TMP DP  RH WIND       PRES   REMARKS
PATUXENT RIVER MOCLDY    75  69  81 SE8       30.02R
BAY BRIDGE APT   N/A     73  61  64 S5        30.03R
LEONARDTOWN    CLOUDY    72  63  73 CALM      30.03R
DOVER          MOCLDY    71  67  88 SE3       30.01R
GEORGETOWN     PTCLDY    68  64  87 SE6       30.03R
EASTON         MOCLDY    73  65  77 CALM      30.07
CAMBRIDGE      MOCLDY    72  63  73 CALM      30.03R
SALISBURY      MOCLDY    69  64  84 SW5       30.04R
OCEAN CITY     PTCLDY    72  66  81 CALM      30.03R
WALLOPS ISLAND CLEAR     73  68  84 CALM      30.04R
ACCOMACK*      CLEAR     70  66  88 CALM      30.02R
$$

NCZ012>017-030>032-210400-
EASTERN NORTH CAROLINA

CITY           SKY/WX    TMP DP  RH WIND       PRES   REMARKS
ELIZABETH CITY PTCLDY    73  72  94 CALM      30.04R FOG
AHOSKIE*       CLEAR     73  71  95 CALM      30.03S
EDENTON*       CLEAR     77  73  88 SE3       30.03R
CURRITUCK*     CLEAR     74  67  79 CALM      30.04R
KILL DEVIL HLS CLEAR     75  71  86 CALM      30.02R
MANTEO         CLEAR     75  72  88 CALM      30.03R
CAPE HATTERAS  CLEAR     75  73  93 E5        30.02S
GOLDSBORO      CLEAR     78  77  98 S3        30.02R
WASHINGTON     CLEAR     76  74  93 CALM      30.04R
GREENVILLE     CLEAR     77  73  88 CALM      30.04S
NEW BERN       CLEAR     78  74  87 CALM      30.05R
WILMINGTON     PTCLDY    77  75  93 CALM      30.03R
$$

VAZ048-210400-
ELSEWHERE

CITY           SKY/WX    TMP DP  RH WIND       PRES   REMARKS
HARRISBURG PA  MOCLDY    73  66  78 S6        30.00R
BALTIMORE      PTCLDY    70  66  87 CALM      30.02R
ANNAPOLIS      PTCLDY    74  64  71 S3        30.02R
ANDREWS AFB    PTCLDY    68  67  98 CALM      30.02R
WILMINGTON DE  CLOUDY    73  66  78 SE6       30.03R
PHILADELPHIA   CLOUDY    73  62  68 S6        30.02R
WILDWOOD NJ*   MOCLDY    70  63  78 SE8       30.01F
ATLANTIC CITY  PTCLDY    69  63  81 W3        30.02R
HENDERSON NC   CLEAR     74  70  87 CALM      30.02F
GREENSBORO     MOCLDY    77  71  82 SW6       30.04S
ROCKY MOUNT    PTCLDY    74  72  93 CALM      30.02S FOG
FAYETTEVILLE   CLEAR     80  74  81 S5        30.02R
CHARLOTTE      CLOUDY    78  72  81 NW5       30.06R
$$

VAZ100-210400-
MARINE

STATION/POSITION TIME  TEMP    WIND        PRES    WAVE   SWELL
                       AIR SEA DIR/SP/G            HT/PER HT/PER
                 (UTC) (F)     (DEG/KT/KT) (MB)    (FT/S) (FT/S)
44066 TX TWR #4  0300   71 73   40/  8/ 10 1015.9F   3/ 6   3/ 6
CAPE MAY NJ      0300   71 80  120/  5/  7 1015.5R
LEWES DE         0300   72 76  160/  6/  8 1016.0R
15NM E FENWICK I 0300   73 75              1016.0R   3/ 6
OCEAN-CITY-INLET 0300   74 76  130/  5/  8 1016.3R
WACHAPREAGUE VA  0300   75 81  170/  3/  6 1016.5R
THOMAS POINT MD  0300   77 78  160/ 10/ 11 1017.1R
GOOSES REEF MD   0300   77     160/ 10/ 12 1016.7R
COVE POINT MD    0300   76     170/ 14/ 15 1016.3R
SOLOMONS ISLAND  0300      80                N/A
BISHOPS HEAD MD  0300   74 80  110/  7/ 10 1016.3R
PINEY POINT MD   0300          170/  9/ 10   N/A
POTOMAC MD       0300   76     170/ 12/ 14 1015.5R
CAMBRIDGE MD     0300   73 78  190/  3/  5 1016.7R
LEWISETTA VA     0300   74 79  150/  4/  5 1016.1R
RAPPAHANNOCK LGT 0300          150/  9/ 10 1016.8R
STINGRAY PT      0300   76     180/ 14/ 16 1016.5R
YORK RVR RNG VA  0300   77     170/ 14/ 16 1015.5R
YORKTOWN VA      0300   76 80  170/  7/ 10 1015.6R
JAMESTOWN VA     0300   75     170/ 12/ 14   N/A
DOMINION TERM VA 0300   77     150/ 10/ 12 1015.9F
KIPTOPEKE VA     0300      81  170/ 11/ 13   N/A
CHES BAY BRIDGE  0300   76 77  160/ 11/ 12 1015.2F
CAPE HENRY VA    0300   75     160/  5/  9 1014.9F
CHESAPEAKE LGHT  0200   76     120/ 10/ 11 1016.6R
WILLOUBY STN VA  0300   76     150/ 12/ 14 1014.3F
S CRANEY ISL VA  0300          140/ 12/ 15 1015.7F
CAPE HENRY BUOY  0300      77                N/A     2/ 7
1ST LANDING BUOY 0300   77     170/ 10/ 12 1015.8R
CAPE CHARLES BUO 0300      77                N/A     2/ 6   2/ 6
OFFSHORE WE BUOY 0300      77                N/A     3/10   2/10
64NM E OF VA BCH 0300   77 78  100/  8/ 10 1015.6F   3/ 7   3/ 7
DUCK PIER NC     0300   77 79  130/  6/  9 1015.9R
44056 DUCK FRF   0300                        N/A     2/ 6
OREGON INLET NC  0300   76 82  100/  3/  5 1016.4S
HATTERAS NC      0300   79 82  110/  4/  5 1017.1S
DIAMOND SHLS NC  0300   78      CALM  /  2 1017.0R   2/ 6   2/ 6
CAPE LOOKOUT NC  0200   81     220/  4/  4 1016.1R
$$


USA.gov is the U.S. government's official web portal to all federal, state and local government web resources and services.